www.pogodaiklimat.ru
ПОГОДА в Абеде
Время
(UTC), дата
10 18.02
11 18.02
12 18.02
13 18.02
14 18.02
15 18.02
16 18.02
17 18.02
18 18.02
19 18.02
20 18.02
21 18.02
22 18.02
23 18.02
00 19.02
01 19.02
02 19.02
03 19.02
04 19.02
05 19.02
06 19.02
07 19.02
08 19.02
09 19.02
10 19.02
11 19.02
12 19.02
13 19.02
14 19.02
15 19.02
16 19.02
17 19.02
18 19.02
19 19.02
20 19.02
21 19.02
22 19.02
23 19.02
00 20.02
01 20.02
02 20.02
03 20.02
04 20.02
05 20.02
06 20.02
07 20.02
08 20.02
09 20.02
10 20.02
11 20.02
12 20.02
13 20.02
14 20.02
15 20.02
16 20.02
17 20.02
18 20.02
19 20.02
20 20.02
21 20.02
22 20.02
23 20.02
00 21.02
01 21.02
02 21.02
03 21.02
04 21.02
05 21.02
06 21.02
07 21.02
08 21.02
09 21.02
10 21.02
11 21.02
12 21.02
13 21.02
14 21.02
15 21.02
16 21.02
17 21.02
18 21.02
19 21.02
20 21.02
21 21.02
22 21.02
23 21.02
00 22.02
01 22.02
02 22.02
03 22.02
04 22.02
05 22.02
06 22.02
07 22.02
08 22.02
09 22.02
10 22.02
11 22.02
12 22.02
13 22.02
14 22.02
15 22.02
16 22.02
17 22.02
18 22.02
19 22.02
20 22.02
21 22.02
22 22.02
23 22.02
00 23.02
01 23.02
02 23.02
03 23.02
04 23.02
05 23.02
06 23.02
07 23.02
08 23.02
09 23.02
10 23.02
11 23.02
12 23.02
13 23.02
14 23.02
15 23.02
16 23.02
17 23.02
18 23.02
19 23.02
20 23.02
21 23.02
22 23.02
23 23.02
00 24.02
01 24.02
02 24.02
03 24.02
04 24.02
05 24.02
06 24.02
07 24.02
08 24.02
09 24.02
10 24.02
11 24.02
12 24.02
13 24.02
14 24.02
15 24.02
16 24.02
17 24.02
18 24.02
19 24.02
20 24.02
21 24.02
22 24.02
23 24.02
00 25.02
01 25.02
02 25.02
03 25.02
04 25.02
05 25.02
06 25.02
07 25.02
08 25.02
09 25.02
Ветер
(напр.,м/с)
Видим. Явления Облачность Т
(С)
Тd
(С)
f
(%)
Тe
(С)
Тes
(С)
Комфортность P
(гПа)
Po
(гПа)
Тmin
(С)
Tmax
(С)
R
(мм)
R24
(мм)
S
(см)
ЮЗ 10 21 км ливневой дождь 6/6 400 м
[]
+4.6 +2.9 89 -2 -2 1010.0 1008.9
ЮЗ 10 13 км слаб. ливневой дождь 9/9 360 м
[]
+5.3 +4.0 91 -1 -1 1010.3 1009.1 0.1
ЮЗ 9-14
{17}
17 км в посл. час морось {ливн. осадки, дождь} 9/9 540 м
[]
+6.2 +3.4 82 +1 +1 1011.0 1009.9 0.2
З 11 9000 м морось 9/9 600 м
[]
+5.0 +2.3 83 -2 -2 1011.4 1010.3
ЮЗ 9 19 км в посл. час морось {ливн. осадки, дождь} 4/4 1000 м
[]
+6.7 +1.8 71 +1 +2 1011.4 1010.3
ЮЗ 10
{18}
26 км в посл. час осадки {ливн. осадки} 6/6 840 м
[]
+5.2 +2.7 84 -1 -1 1011.7 1010.6 0.0
ЮЗ 11 26 км 6/6 1200 м
[]
+5.2 +2.5 83 -2 -2 1011.3 1010.1
ЮЗ 8 15 км слаб. ливневой дождь {морось} 6/6 630 м
[]
+4.9 +2.8 86 -1 -1 1011.6 1010.4
ЮЗ 8
{18}
15 км в посл. час морось {ливн. осадки, дождь} 4/4 570 м
[]
+5.2 +2.5 83 -1 -1 1011.4 1010.3 +4.0 +7.3 0.1
ЮЗ 7 10 км слаб. дождь {морось} 9/9 720 м
[]
+5.5 +3.0 84 0 0 1011.1 1010.0
ЮЗ 8 19 км в посл. час дождь {ливн. осадки} 9/9 800 м
[]
+5.7 +2.8 82 0 0 1010.6 1009.5
ЮЗ 10
{13}
23 км в посл. час дождь {ливн. осадки} 6/6 1260 м
[]
+5.0 +3.2 88 -1 -1 1010.0 1008.9 0.0
ЮЗ 7 11 км слаб. ливневой дождь 9/9 630 м
[]
+4.6 +3.9 95 -1 -1 1009.4 1008.3 0.1
ЮЗ 9 11 км слаб. ливневой дождь 9/9 400 м
[]
+4.6 +3.3 91 -2 -2 1008.4 1007.3
Ю 7
{13}
14 км {ливн. осадки, дождь} 9/9 960 м
[]
+4.9 +3.9 93 -1 -1 1007.2 1006.1 0.1
Ю 9 14 км 10/10 500 м
[]
+5.6 +4.0 89 -1 -1 1006.2 1005.1
Ю 9 19 км 9/9 870 м
[]
+5.6 +3.6 87 -0 -0 1005.3 1004.2
Ю 10 20 км слаб. морось 10/10 630 м
[]
+6.0 +3.7 85 0 0 1003.8 1002.7 0.0
Ю 13 15 км в посл. час дождь {ливн. осадки, морось} 9/9 420 м
[]
+5.8 +3.8 87 -1 -1 1003.3 1002.1
ЮЗ 7 18 км морось 9/9 400 м
[]
+5.0 +3.4 89 -1 -1 1003.9 1002.8
ЮЗ 7
{19}
30 км в посл. час дождь {ливн. осадки} 9/9 480 м
[]
+4.6 +3.3 91 -1 -1 1003.9 1002.8 +4.0 +6.1 0.0 0.4
ЮЗ 6 20 км в посл. час дождь {ливн. осадки} 9/9 450 м
[]
+4.8 +3.3 90 -1 -1 1004.6 1003.5 0.7
З 7 30 км 9/9 500 м
[]
+5.2 +2.7 84 -0 -0 1005.4 1004.3
З 6 30 км {ливн. осадки} 6/6 400 м
[]
+5.2 +2.9 85 0 +1 1006.1 1005.0 0.7
З 6 29 км 6/6 480 м
[]
+5.9 +2.8 80 +1 +2 1006.6 1005.5
З 6 27 км 9/9 500 м
[]
+6.4 +2.6 77 +2 +2 1007.1 1006.0
З 6-11
{11}
29 км {ливн. осадки} 9/9 600 м
[]
+6.8 +2.7 75 +2 +2 1007.6 1006.5
З 7 45 км слаб. ливневой дождь 6/6 540 м
[]
+6.4 +2.9 78 +1 +2 1008.2 1007.1
З 5 40 км слаб. ливневой дождь 6/6 540 м
[]
+4.9 +2.8 86 0 +1 1009.1 1007.9
З 4
{13}
50 км {ливн. осадки, дождь} 1/1 1050 м
[]
+6.0 +3.1 82 +2 +2 1010.1 1008.9 0.0
З 5 26 км 9/0
[]
+6.0 +2.3 77 +2 +2 1010.7 1009.6
ЮЗ 4 23 км 9/9 1470 м
[]
+5.4 +2.8 83 +1 +1 1011.6 1010.5
З 5
{13}
20 км {ливн. осадки, дождь} 9/9 800 м
[]
+5.6 +3.6 87 +1 +1 1012.3 1011.2 +4.1 +7.0 0.0
З 5 30 км 9/9 570 м
[]
+5.5 +3.3 86 +1 +1 1013.0 1011.9
З 6 17 км 9/9 1410 м
[]
+5.5 +3.4 86 +1 +1 1013.4 1012.3
З 6 15 км 6/6 1440 м
[]
+5.2 +3.0 86 0 0 1014.0 1012.8
З 6 12 км 9/9 1110 м
[]
+5.3 +3.3 87 0 0 1014.5 1013.3
ЮЗ 5 14 км 9/9 1140 м
[]
+5.3 +2.9 84 +1 +1 1014.8 1013.7
ЮЗ 5 16 км 4/4 1110 м
[]
+4.7 +2.0 83 0 0 1015.2 1014.0
ЮЗ 4 13 км н/о +3.8 +1.9 87 -1 -1 1015.5 1014.4
ЮЗ 4 11 км 4/4 330 м
[]
+3.4 +2.3 92 -1 -1 1015.3 1014.1
Ю 4 11 км ясно +2.5 +1.8 95 -2 -2 1015.1 1013.9
Ю 4 12 км 1/1 330 м
[]
+2.1 +1.4 95 -3 -3 1014.8 1013.6
Ю 5 13 км ясно +2.1 +1.3 94 -3 -3 1014.1 1012.9
Ю 6 12 км 10/10 1200 м
[]
+3.1 +1.8 91 -3 -3 1013.8 1012.6 +1.7 +5.7 0.7
Ю 6 6000 м слаб. морось 10/10 400 м
[]
+3.3 +2.3 93 -2 -2 1013.4 1012.3
Ю 7 5000 м слаб. ливневой дождь {морось} 10/10 180 м
[]
+3.5 +2.9 96 -3 -3 1013.1 1012.0 0.1
Ю 7 6000 м слаб. дождь 10/10 150 м
[]
+3.7 +3.4 98 -3 -3 1012.6 1011.5 0.9
Ю 8 8000 м слаб. дождь {морось} 10/10 150 м
[]
+4.3 +3.9 97 -2 -2 1011.8 1010.7 0.8
Ю 8 10 км слаб. дождь {морось} 10/10 150 м
[]
+4.8 +4.4 97 -1 -1 1011.2 1010.1 1
Ю 9 12 км слаб. морось {дождь} 10/10 120 м
[]
+5.1 +4.7 97 -1 -1 1010.0 1008.8 2
Ю 9 13 км слаб. ливневой дождь {морось} 10/10 120 м
[]
+5.5 +5.1 97 -1 -1 1009.3 1008.1
Ю 8 10 км {ливн. осадки} 10/10 120 м
[]
+6.2 +5.7 97 +1 +1 1008.6 1007.5
Ю 9 6000 м слаб. ливневой дождь {морось} 9/9 120 м
[]
+6.3 +5.9 97 +1 +1 1007.8 1006.7 0.1
Ю 9 8000 м слаб. ливневой дождь 9/9 150 м
[]
+6.5 +6.0 97 +1 +1 1006.5 1005.4
Ю 9 17 км в посл. час дождь {ливн. осадки} 9/9 180 м
[]
+6.5 +5.7 95 +1 +1 1006.0 1004.9 0.1
Ю 9 22 км {ливн. осадки, морось} 9/9 1200 м
[]
+6.6 +5.5 93 +1 +1 1004.6 1003.4 +3.0 +6.7 0.1
Ю 10 22 км слаб. ливневой дождь {морось} 9/9 1110 м
[]
+6.6 +5.3 91 +1 +1 1003.0 1001.9
Ю 11 14 км слаб. ливневой дождь 9/9 1020 м
[]
+6.8 +5.0 88 +1 +1 1001.7 1000.6
Ю 10 18 км слаб. дождь 10/10 720 м
[]
+6.5 +5.1 91 +1 +1 1000.5 999.3 0.2
Ю 9 11 км слаб. дождь 10/10 630 м
[]
+6.4 +5.4 93 +1 +1 999.5 998.4 1
З 9 45 км слаб. дождь 10/10 240 м
[]
+5.3 +3.4 88 -1 -1 1000.6 999.5 0.5
З 7
{17}
40 км {ливн. осадки, снег} 9/9 420 м
[]
+5.2 +3.2 87 -0 -0 1002.8 1001.7 2
З 8 20 км осадки 9/9 540 м
[]
+5.0 +2.7 85 -1 -1 1004.6 1003.5
З 7 40 км в посл. час дождь {ливн. осадки} 9/9 1500 м
[]
+4.5 +1.8 83 -1 -1 1005.8 1004.7
З 6
{15}
20 км {ливн. осадки, дождь} 1/0
[]
+4.6 +1.5 80 -1 -1 1007.1 1005.9 0.0
З 6 17 км ясно +4.5 +1.4 80 -1 -1 1008.4 1007.2
З 6 16 км ясно +4.4 +1.6 82 -1 -1 1009.9 1008.7
З 6
{15}
16 км {ливн. осадки, дождь} ясно +4.5 +1.8 83 -1 -1 1010.8 1009.7 +4.1 +6.9 5.1
ЮЗ 6 13 км ясно +4.5 +2.0 84 -1 -1 1012.0 1010.8
ЮЗ 6 13 км 1/1 1000 м
[]
+5.1 +2.5 83 0 +1 1013.4 1012.3
ЮЗ 7
{12}
13 км 1/1 1260 м
[]
+6.1 +2.7 79 +1 +2 1014.1 1013.0
З 8 12 км 1/1 660 м
[]
+6.7 +3.4 79 +2 +2 1014.8 1013.7
З 9 12 км ясно +7.6 +3.4 75 +3 +3 1015.3 1014.1
ЮЗ 8
{12}
13 км 6/6 1200 м
[]
+7.3 +3.3 76 +2 +3 1015.7 1014.6
ЮЗ 9 14 км 9/9 800 м
[]
+7.0 +3.1 76 +2 +2 1016.2 1015.1
ЮЗ 9 13 км 10/10 800 м
[]
+6.8 +3.8 81 +1 +1 1016.3 1015.1
ЮЗ 8 13 км 9/9 700 м
[]
+6.7 +3.7 81 +1 +1 1016.4 1015.3
ЮЗ 11 9000 м дымка {ливн. осадки, осадки} 9/9 540 м
[]
+6.0 +4.0 87 -0 -0 1016.6 1015.4
ЮЗ 10 19 км 9/9 1500 м
[]
+5.9 +3.5 85 -0 -0 1016.0 1014.9
ЮЗ 9
{16}
15 км {ливн. осадки, осадки} 9/9 800 м
[]
+5.9 +3.9 87 0 0 1016.2 1015.0 +4.3 +7.9 0.0
ЮЗ 10 14 км слаб. морось 10/10 570 м
[]
+6.0 +4.1 88 -0 -0 1015.6 1014.5
ЮЗ 10 19 км в посл. час морось {ливн. осадки} 10/10 630 м
[]
+5.8 +4.3 90 -1 -1 1015.1 1014.0
ЮЗ 10
{16}
3800 м дымка {ливн. осадки} 10/10 300 м
[]
+5.6 +4.5 93 -1 -1 1015.3 1014.2 0.0
ЮЗ 10 2300 м слаб. дождь {морось} 10/10 90 м
[]
+5.5 +5.2 98 -1 -1 1014.6 1013.4 0.5
ЮЗ 10 3200 м слаб. дождь {морось} 10/10 90 м
[]
+5.6 +5.4 99 -1 -1 1013.6 1012.5
ЮЗ 10
{16}
2100 м дымка {ливн. осадки, дождь} 10/10 120 м
[]
+5.7 +5.5 99 -1 -1 1013.0 1011.9 0.5
ЮЗ 10 2500 м слаб. ливневой дождь 10/10 90 м
[]
+5.9 +5.7 99 -0 -0 1011.9 1010.7 0.1
ЮЗ 10 3900 м дымка {ливн. осадки} 10/10 120 м
[]
+5.9 +5.7 99 -0 -0 1010.7 1009.5
ЮЗ 10 12 км {ливн. осадки, дождь} 10/10 240 м
[]
+6.5 +5.2 91 +1 +1 1009.5 1008.4 0.1
ЮЗ 10 9000 м слаб. дождь {осадки} 10/10 450 м
[]
+6.7 +5.2 90 +1 +1 1008.8 1007.7 0.2
ЮЗ 11 8000 м морось {дождь} 10/10 300 м
[]
+6.5 +5.5 93 0 0 1007.7 1006.6 0.3
ЮЗ 12 8000 м морось {ливн. осадки, снег} 10/10 180 м
[]
+6.2 +5.6 96 -0 -0 1006.5 1005.4 +5.3 +6.9 1 1.7
ЮЗ 12 9000 м морось {дождь} 10/10 240 м
[]
+6.2 +5.4 95 -0 -0 1006.0 1004.9 0.1
ЮЗ 13 9000 м в посл. час морось {дождь} 10/10 240 м
[]
+6.4 +5.5 94 -0 -0 1004.6 1003.5 0.2
ЮЗ 14
{20}
6000 м дымка {дождь} 10/10 270 м
[]
+6.4 +5.3 93 -1 -1 1004.0 1002.9 0.3
ЮЗ 13 6000 м слаб. ливневой дождь 10/10 210 м
[]
+6.4 +5.5 94 -0 -0 1002.7 1001.6 0.1
ЮЗ 14 4600 м слаб. ливневой дождь 10/10 210 м
[]
+6.7 +5.9 95 -0 -0 1002.4 1001.2
ЮЗ 13-21
{22}
5000 м слаб. ливневой дождь 10/10 150 м
[]
+6.9 +6.4 97 0 0 1001.9 1000.7 0.4
ЮЗ 12 9000 м слаб. ливневой дождь 9/9 180 м
[]
+7.9 +6.9 93 +2 +2 1002.1 1001.0 0.6
ЮЗ 10 12 км в посл. час морось {ливн. осадки} 9/9 660 м
[]
+8.4 +5.7 83 +3 +3 1002.6 1001.5
З 10-17
{19}
17 км {ливн. осадки, дождь} 6/0
[]
+8.2 +3.3 71 +3 +3 1002.5 1001.4 0.6
З 10 30 км в посл. час морось {ливн. осадки} 9/9 900 м
[]
+6.0 +2.0 75 0 0 1004.4 1003.3
З 9 21 км {ливн. осадки} 9/0
[]
+6.1 +2.9 80 +1 +1 1004.9 1003.8
З 10-16
{22}
22 км {ливн. осадки, дождь} 9/9 1110 м
[]
+6.7 +1.2 68 +1 +1 1005.4 1004.3 +5.8 +8.9 0.0
З 10 16 км 9/9 1000 м
[]
+6.5 +2.2 74 +1 +1 1006.0 1004.9
З 9 6000 м сильн. дождь {ливн. осадки} 9/9 870 м
[]
+5.7 +2.1 78 -0 -0 1006.6 1005.4 0.3
З 11-16
{20}
17 км в посл. час дождь {ливн. осадки} 1/1 1350 м
[]
+6.2 +0.6 67 0 0 1006.1 1005.0 1
З 10 15 км ясно +6.0 +0.8 69 0 0 1006.6 1005.4
З 10 14 км {морось, осадки} 1/1 1500 м
[]
+6.0 +1.5 73 0 0 1006.8 1005.7 0.1
З 9
{20}
14 км {ливн. осадки, дождь} 1/1 1200 м
[]
+5.7 +1.4 74 0 0 1006.7 1005.6 0.1
З 10 14 км в посл. час осадки {ливн. осадки, морось} 1/1 930 м
[]
+6.0 +1.0 70 0 0 1007.2 1006.0
З 12 15 км в посл. час морось {ливн. осадки, дождь} 6/6 1000 м
[]
+5.5 +0.4 70 -1 -1 1007.0 1005.9 0.1
ЮЗ 8-13
{21}
14 км {ливн. осадки, дождь} 1/1 1140 м
[]
+5.2 +1.4 76 -0 -0 1007.1 1006.0 0.1
З 10 14 км слаб. ливневой дождь 9/9 300 м
[]
+3.4 +1.2 85 -4 -4 1007.1 1006.0 0.6
З 7 17 км в посл. час дождь {ливн. осадки} 9/9 720 м
[]
+4.1 +1.6 84 -2 -2 1007.0 1005.8 0.1
З 8
{21}
14 км {ливн. осадки, дождь} 6/6 870 м
[]
+5.3 +2.2 80 -0 -0 1006.4 1005.2 +2.9 +7.1 0.7 3.4
З 8 13 км 6/6 870 м
[]
+5.7 +2.5 80 0 0 1005.7 1004.6
ЮЗ 7 14 км 4/4 840 м
[]
+6.0 +2.9 80 +1 +1 1005.3 1004.2
ЮЗ 8
{13}
16 км 1/0
[]
+6.1 +3.1 81 +1 +1 1004.3 1003.1
ЮЗ 9 35 км 4/0
[]
+4.8 +2.9 87 -2 -1 1003.4 1002.3
ЮЗ 7 25 км 9/9 270 м
[]
+4.5 +3.2 91 -1 -1 1002.5 1001.4
ЮЗ 7
{17}
35 км 9/9 240 м
[]
+4.8 +3.6 92 -1 -1 1001.1 1000.0
ЮЗ 8 30 км в посл. час морось {ливн. осадки} 9/9 240 м
[]
+4.7 +3.5 92 -1 -1 1000.3 999.2
ЮЗ 7 35 км слаб. ливневой дождь {морось} 9/9 240 м
[]
+5.1 +4.1 93 -0 -0 999.2 998.1 0.1
ЮЗ 5 10 км морось {ливн. осадки} 9/9 210 м
[]
+5.4 +4.6 95 +1 +1 998.8 997.7 0.1
З 5 н/о {дождь, морось} 9/9 420 м
[]
+4.5 +3.0 90 -1 -1 999.6 998.5 0.4
З 6 40 км слаб. ливневой дождь {морось} 9/9 450 м
[]
+4.3 +2.8 90 -1 -1 1000.6 999.5 0.2
З 6
{12}
15 км ливневой дождь 9/9 630 м
[]
+4.3 +2.2 86 -1 -1 1002.1 1001.0 +4.2 +6.3 0.6
З 6 30 км {ливн. осадки} 9/9 800 м
[]
+4.2 +2.0 86 -1 -1 1003.2 1002.0
З 6 25 км 1/0
[]
+3.9 +1.9 87 -2 -2 1004.6 1003.5
З 7
{12}
15 км {ливн. осадки} 1/1 600 м
[]
+4.3 +2.0 85 -1 -1 1006.1 1004.9 0.0
З 7 17 км 4/4 840 м
[]
+4.7 +2.2 84 -1 -1 1007.3 1006.2
З 7 16 км 9/9 630 м
[]
+5.2 +2.5 83 -0 -0 1008.1 1007.0
З 8
{13}
16 км {ливн. осадки} 9/9 600 м
[]
+5.5 +2.7 82 0 0 1009.1 1008.0
З 7 14 км 9/9 700 м
[]
+5.8 +3.0 82 +1 +1 1010.3 1009.2
З 8 19 км 9/9 720 м
[]
+5.8 +2.9 82 0 0 1011.4 1010.3
З 6-11
{15}
18 км 1/1 700 м
[]
+5.3 +2.4 82 0 0 1012.3 1011.2
З 5 18 км ясно +4.6 +2.0 83 0 0 1013.4 1012.2
З 5 16 км ясно +4.6 +2.5 86 0 0 1014.3 1013.2
З 4
{15}
16 км 1/0
[]
+4.5 +2.6 87 0 0 1014.8 1013.7 +3.5 +6.0 0.7
З 4 17 км ясно +4.3 +2.2 86 -0 0 1015.2 1014.1
З 4 19 км ясно +5.2 +2.8 84 +1 +2 1015.6 1014.5
З 4 19 км 4/0
[]
+5.5 +2.9 83 +2 +3 1015.4 1014.3
З 4 20 км 1/0
[]
+5.7 +3.1 83 +2 +4 1014.9 1013.8
ЮЗ 5 19 км 6/6 300 м
[]
+5.7 +3.6 86 +1 +2 1014.4 1013.3
ЮЗ 4 24 км 9/9 360 м
[]
+5.7 +3.4 85 +2 +2 1013.4 1012.3
ЮЗ 4 19 км 9/9 400 м
[]
+5.6 +3.9 89 +2 +2 1012.0 1010.9
Ю 4 21 км 9/0
[]
+5.4 +3.4 87 +2 +2 1010.3 1009.2
Ю 3 19 км 9/0 2000 м
[]
+5.3 +3.6 89 +2 +2 1008.6 1007.5
Ю 4 16 км 9/9 1110 м
[]
+5.2 +3.6 89 +1 +1 1006.7 1005.6
Ю 7 16 км слаб. ливневой дождь {морось} 9/9 630 м
[]
+4.2 +2.4 88 -2 -2 1005.3 1004.2
Ю 6
{10}
12 км морось {ливн. осадки} 10/10 300 м
[]
+3.1 +1.9 92 -3 -3 1004.0 1002.8 +3.1 +6.0 0.3
ЮВ 5 16 км морось {дождь} 10/10 240 м
[]
+2.7 +1.7 93 -3 -3 1001.7 1000.6 0.8
ЮВ 6 16 км слаб. дождь {морось} 10/10 180 м
[]
+2.4 +1.7 95 -4 -4 999.7 998.6 0.9
ЮВ 6 6000 м слаб. дождь {морось} 10/10 180 м
[]
+2.5 +1.9 96 -3 -3 997.6 996.5 2
ЮВ 6 4800 м слаб. дождь 9/9 120 м
[]
+2.7 +2.2 97 -3 -3 995.5 994.4 0.9
ЮВ 6 5000 м слаб. дождь 9/9 120 м
[]
+2.7 +2.4 98 -3 -3 993.6 992.5 2
Ю 5 9000 м слаб. дождь 9/9 120 м
[]
+3.6 +3.4 99 -2 -2 992.2 991.1 16
ЮЗ 6 10 км слаб. ливневой дождь 9/9 90 м
[]
+6.2 +6.1 99 +1 +1 991.4 990.3 0.2
ЮЗ 9 15 км в посл. час дождь {ливн. осадки} 6/6 750 м
[]
+7.2 +5.4 88 +2 +2 990.5 989.4 0.1
ЮЗ 10
{17}
18 км {ливн. осадки, дождь} 6/6 1020 м
[]
+6.2 +2.4 77 0 0 990.4 989.3 0.3
ЮЗ 9 16 км 4/4 870 м
[]
+5.6 +2.6 81 -0 -0 990.4 989.3
ЮЗ 9 18 км 6/6 700 м
[]
+5.5 +2.4 80 -1 -1 990.5 989.4
ЮЗ 10-15
{18}
н/о {ливн. осадки, дождь} 4/4 870 м
[]
+5.3 +1.2 75 -1 -1 990.5 989.4 +2.3 +7.2 0.0 18.9
ЮЗ 9 18 км слаб. ливневой дождь {морось} 9/9 600 м
[]
+4.7 +2.2 84 -2 -2 990.4 989.3
ЮЗ 9 16 км {ливн. осадки} 6/6 800 м
[]
+5.5 +2.0 78 -0 -0 989.9 988.8
ЮЗ 12-17
{17}
13 км слаб. ливневой дождь {морось} 6/6 600 м
[]
+5.3 +2.4 82 -1 -1 989.2 988.1 0.0
Местоположение метеостанции Абед (Дания): широта 54.83 долгота 11.33 высота над уровнем моря 9 м.
В архиве по умолчанию представлена погода в Абеде за последнюю неделю. Архивные данные за месяц целиком и за предыдущие месяцы, начиная с января 2011 года, Вы можете получить, выбрав интересующий диапазон дат из раскрывающегося списка и нажав кнопку "Найти!".
*Определитесь, кто Вы:
Внимание! Время в таблицах - всемирное. Для получения местного времени необходимо прибавить поправку, которая равна 1 ч.
Смотрите также архив погоды в соседних городах и на ближайших метеорологических станциях:
Партнеры нашего сайта:      
Пояснения к столбцам:
  • Ветер - указаны скорость ветра в м/с - средняя за 10 мин, порывы в срок и между сроками (в фигурных скобках) и направление, откуда дует ветер: С - северный,
  • СВ - северо-восточный, В - восточный, ЮВ - юго-восточный, Ю - южный, ЮЗ - юго-западный, З - западный, СЗ - северо-западный.
  • Видимость - горизонтальная дальность видимости в метрах или километрах. При видимости от 1 до 10 км при отсутствии осадков обычно наблюдается дымка, при ухудшении видимости до 1 км и менее - туман. В сухую погоду видимость может ухудшаться дымом, пылью или мглою.
  • Явления - указаны атмосферные явления, наблюдавшиеся в срок или в последний час перед сроком; фигурными скобками обозначены явления, наблюдавшиеся между сроками (за 1-3 часа до срока); квадратными скобками обозначены град или гололедные отложения с указанием их диаметра в мм.
  • Облачность - указаны через наклонную черту общая и нижняя облачность в баллах и высота нижней границы облаков в метрах; квадратными скобками обозначены формы облаков: Ci - перистые, Cs - перисто-слоистые, Cc - перисто-кучевые, Ac - высококучевые, As - высокослоистые, Sc - слоисто-кучевые, Ns - слоисто-дождевые, Cu - кучевые, Cb - кучево-дождевые. Подробнее классификацию облаков см. в Атласе облаков (PDF).
  • T - Температура воздуха - температура, измеренная на высоте 2 м над землей.
  • Td - Температура точки росы - температура, при понижении до которой содержащийся в воздухе водяной пар достигнет насыщения.
  • f - Относительная влажность воздуха - влажноcть воздуха, измеренная на высоте 2 м над землей.
  • Te - Эффективная температура - температура, которую ощущает одетый по сезону человек в тени. Характеристика душности погоды. При расчете учитывается влияние влажности воздуха и скорости ветра на теплоощущения человека.
  • Tes - Эффективная температура на солнце - температура, которую ощущает человек, с поправкой на солнечный нагрев. Характеристика знойности погоды. Зависит от высоты солнца над горизонтом, облачности и скорости ветра. Ночью, в пасмурную погоду, а также при ветре 12 м/с и более поправка равна нулю.
  • P - Атмосферное давление - приведенное к уровню моря атмосферное давление.
  • Po - Атмосферное давление - измеренное на уровне метеостанции атмосферное давление.
  • Tmin - Минимальная температура - минимум температуры воздуха на высоте 2 м над землей.
  • Tmax - Максимальная температура - максимум температуры воздуха на высоте 2 м над землей.
  • R - Количество осадков - Количество выпавших осадков за период времени, мм. При наведении курсора мыши на число - период времени, за который выпало указанное количество осадков.
  • R24 - Количество осадков - Количество выпавших осадков за 24 часа, мм.
  • S - Снежный покров - Высота снежного покрова, см. При наведении курсора мыши на число - состояние снежного покрова и степень покрытия местности в баллах.